| time (UTC) | temp F | wind direction | speed MPH | gust MPH | rain 1hr in | rain 24hr in | rain mn in | humidity % | barometer mb |
| 20260504043606 | 65 | 115 | 0.0 | 0.0 | 0.00 | 0.00 | 0.00 | 84 | 1019.0 |
| 20260504043106 | 65 | 115 | 0.0 | 0.0 | 0.00 | 0.00 | 0.00 | 84 | 1019.0 |
| 20260504042606 | 65 | 115 | 0.0 | 0.0 | 0.00 | 0.00 | 0.00 | 84 | 1018.9 |
| 20260504042105 | 65 | 115 | 0.0 | 0.0 | 0.00 | 0.00 | 0.00 | 84 | 1019.0 |
| 20260504041606 | 66 | 115 | 0.0 | 0.0 | 0.00 | 0.00 | 0.00 | 84 | 1019.0 |
| 20260504041106 | 66 | 115 | 0.0 | 0.0 | 0.00 | 0.00 | 0.00 | 84 | 1019.0 |
| 20260504040111 | 66 | 115 | 0.0 | 0.0 | 0.00 | 0.00 | 0.00 | 83 | 1019.0 |
| 20260504034605 | 66 | 115 | 0.0 | 0.0 | 0.00 | 0.00 | 0.00 | 84 | 1019.2 |
| 20260504033606 | 66 | 115 | 0.0 | 0.0 | 0.00 | 0.00 | 0.00 | 83 | 1019.2 |
| 20260504033106 | 66 | 115 | 0.0 | 0.0 | 0.00 | 0.00 | 0.00 | 83 | 1019.0 |
| 20260504032606 | 66 | 115 | 0.0 | 0.0 | 0.00 | 0.00 | 0.00 | 82 | 1019.0 |
| 20260504031605 | 67 | 115 | 0.0 | 0.0 | 0.00 | 0.00 | 0.00 | 82 | 1018.9 |
| 20260504031106 | 67 | 115 | 0.0 | 0.0 | 0.00 | 0.00 | 0.00 | 81 | 1018.8 |
| 20260504030112 | 68 | 115 | 0.0 | 0.0 | 0.00 | 0.00 | 0.00 | 80 | 1018.9 |
| 20260504025605 | 68 | 115 | 0.0 | 0.0 | 0.00 | 0.00 | 0.00 | 79 | 1018.9 |
| 20260504025106 | 68 | 115 | 0.0 | 0.0 | 0.00 | 0.00 | 0.00 | 79 | 1018.9 |
| 20260504024106 | 68 | 115 | 0.0 | 2.0 | 0.00 | 0.00 | 0.00 | 78 | 1018.8 |
| 20260504023106 | 69 | 121 | 0.0 | 0.0 | 0.00 | 0.00 | 0.00 | 78 | 1018.8 |
| 20260504022605 | 69 | 121 | 0.0 | 0.0 | 0.00 | 0.00 | 0.00 | 77 | 1018.7 |
| 20260504022106 | 69 | 121 | 0.0 | 0.0 | 0.00 | 0.00 | 0.00 | 77 | 1018.6 |
| 20260504021606 | 69 | 121 | 0.0 | 0.0 | 0.00 | 0.00 | 0.00 | 76 | 1018.6 |
| 20260504021105 | 69 | 121 | 0.0 | 0.0 | 0.00 | 0.00 | 0.00 | 76 | 1018.5 |
| 20260504020112 | 70 | 121 | 0.0 | 1.0 | 0.00 | 0.00 | 0.00 | 75 | 1018.4 |
| 20260504015606 | 70 | 121 | 0.0 | 1.0 | 0.00 | 0.00 | 0.00 | 75 | 1018.3 |
| 20260504014605 | 71 | 121 | 0.0 | 0.0 | 0.00 | 0.00 | 0.00 | 74 | 1018.2 |
| 20260504013606 | 71 | 121 | 0.0 | 0.0 | 0.00 | 0.00 | 0.00 | 73 | 1018.0 |
| 20260504013106 | 71 | 121 | 0.0 | 2.0 | 0.00 | 0.00 | 0.00 | 72 | 1017.8 |
| 20260504012605 | 71 | 121 | 1.0 | 3.0 | 0.00 | 0.00 | 0.00 | 72 | 1017.8 |
| 20260504011606 | 72 | 121 | 1.0 | 3.0 | 0.00 | 0.00 | 0.00 | 71 | 1017.7 |
| 20260504011105 | 72 | 121 | 1.0 | 2.0 | 0.00 | 0.00 | 0.00 | 71 | 1017.7 |
| 20260504005606 | 72 | 41 | 1.0 | 2.0 | 0.00 | 0.00 | 0.00 | 71 | 1017.6 |
| 20260504005105 | 73 | 41 | 1.0 | 3.0 | 0.00 | 0.00 | 0.00 | 71 | 1017.5 |
| 20260504004605 | 73 | 63 | 0.0 | 2.0 | 0.00 | 0.00 | 0.00 | 70 | 1017.5 |
| 20260504004106 | 73 | 62 | 1.0 | 3.0 | 0.00 | 0.00 | 0.00 | 70 | 1017.6 |
| 20260504003606 | 73 | 65 | 1.0 | 2.0 | 0.00 | 0.00 | 0.00 | 69 | 1017.5 |
| 20260504003105 | 73 | 65 | 1.0 | 3.0 | 0.00 | 0.00 | 0.00 | 68 | 1017.3 |
| 20260504002605 | 74 | 68 | 1.0 | 3.0 | 0.00 | 0.00 | 0.00 | 67 | 1017.2 |
| 20260504002106 | 74 | 28 | 1.0 | 3.0 | 0.00 | 0.00 | 0.00 | 67 | 1017.2 |
| 20260504001606 | 74 | 30 | 1.0 | 2.0 | 0.00 | 0.00 | 0.00 | 66 | 1017.2 |
| 20260504001105 | 75 | 60 | 1.0 | 3.0 | 0.00 | 0.00 | 0.00 | 66 | 1017.1 |
| 20260504000605 | 75 | 92 | 1.0 | 3.0 | 0.00 | 0.00 | 0.00 | 65 | 1017.1 |
| 20260504000112 | 75 | 45 | 1.0 | 3.0 | 0.00 | 0.00 | 0.00 | 64 | 1017.0 |
| 20260503235606 | 76 | 45 | 2.0 | 3.0 | 0.00 | 0.00 | 0.00 | 63 | 1016.9 |
| 20260503234606 | 76 | 73 | 1.0 | 3.0 | 0.00 | 0.00 | 0.00 | 61 | 1016.9 |
| 20260503233605 | 77 | 30 | 1.0 | 5.0 | 0.00 | 0.00 | 0.00 | 60 | 1016.8 |
| 20260503233106 | 77 | 79 | 1.0 | 6.0 | 0.00 | 0.00 | 0.00 | 58 | 1016.8 |
| 20260503232105 | 77 | 10 | 2.0 | 3.0 | 0.00 | 0.00 | 0.00 | 57 | 1016.6 |
| 20260503230605 | 78 | 70 | 1.0 | 3.0 | 0.00 | 0.00 | 0.00 | 56 | 1016.7 |
| 20260503230112 | 78 | 314 | 2.0 | 7.0 | 0.00 | 0.00 | 0.00 | 55 | 1016.6 |
| 20260503225105 | 78 | 78 | 1.0 | 3.0 | 0.00 | 0.00 | 0.00 | 55 | 1016.6 |
| 20260503224605 | 78 | 155 | 1.0 | 3.0 | 0.00 | 0.00 | 0.00 | 54 | 1016.7 |
| 20260503224105 | 79 | 52 | 2.0 | 3.0 | 0.00 | 0.00 | 0.00 | 54 | 1016.7 |
| 20260503223605 | 79 | 67 | 2.0 | 5.0 | 0.00 | 0.00 | 0.00 | 54 | 1016.6 |
| 20260503223105 | 79 | 281 | 0.0 | 3.0 | 0.00 | 0.00 | 0.00 | 54 | 1016.6 |
| 20260503222605 | 79 | 52 | 1.0 | 3.0 | 0.00 | 0.00 | 0.00 | 55 | 1016.6 |
| 20260503222106 | 79 | 35 | 1.0 | 3.0 | 0.00 | 0.00 | 0.00 | 55 | 1016.6 |
| 20260503221606 | 79 | 340 | 2.0 | 8.0 | 0.00 | 0.00 | 0.00 | 54 | 1016.7 |
| 20260503221105 | 79 | 333 | 3.0 | 8.0 | 0.00 | 0.00 | 0.00 | 54 | 1016.7 |
| 20260503220605 | 78 | 306 | 2.0 | 5.0 | 0.00 | 0.00 | 0.00 | 55 | 1016.6 |
| 20260503220112 | 78 | 23 | 1.0 | 3.0 | 0.00 | 0.00 | 0.00 | 56 | 1016.6 |
| 20260503215607 | 78 | 335 | 2.0 | 5.0 | 0.00 | 0.00 | 0.00 | 56 | 1016.7 |
| 20260503215105 | 78 | 315 | 2.0 | 6.0 | 0.00 | 0.00 | 0.00 | 55 | 1016.6 |
| 20260503214605 | 78 | 335 | 2.0 | 6.0 | 0.00 | 0.00 | 0.00 | 56 | 1016.6 |
| 20260503214105 | 79 | 322 | 1.0 | 3.0 | 0.00 | 0.00 | 0.00 | 55 | 1016.7 |
| 20260503213606 | 79 | 51 | 1.0 | 7.0 | 0.00 | 0.00 | 0.00 | 54 | 1016.7 |
| 20260503213106 | 79 | 47 | 2.0 | 8.0 | 0.00 | 0.01 | 0.00 | 54 | 1016.6 |
| 20260503212605 | 80 | 318 | 3.0 | 8.0 | 0.00 | 0.01 | 0.00 | 55 | 1016.6 |
| 20260503211605 | 79 | 327 | 3.0 | 9.0 | 0.00 | 0.01 | 0.00 | 55 | 1016.7 |
| 20260503211105 | 79 | 317 | 3.0 | 5.0 | 0.00 | 0.01 | 0.00 | 56 | 1016.6 |
| 20260503210605 | 79 | 317 | 2.0 | 6.0 | 0.00 | 0.01 | 0.00 | 54 | 1016.7 |
| 20260503210112 | 79 | 334 | 2.0 | 6.0 | 0.00 | 0.01 | 0.00 | 55 | 1016.7 |
| 20260503205605 | 79 | 53 | 2.0 | 6.0 | 0.00 | 0.01 | 0.00 | 55 | 1016.7 |
| 20260503204606 | 79 | 91 | 1.0 | 6.0 | 0.00 | 0.03 | 0.00 | 56 | 1016.7 |
| 20260503204105 | 79 | 351 | 2.0 | 5.0 | 0.00 | 0.03 | 0.00 | 55 | 1016.7 |
| 20260503203105 | 81 | 349 | 2.0 | 5.0 | 0.00 | 0.04 | 0.00 | 53 | 1016.9 |
| 20260503202605 | 81 | 76 | 2.0 | 6.0 | 0.00 | 0.04 | 0.00 | 54 | 1016.9 |
| 20260503202105 | 81 | 349 | 4.0 | 8.0 | 0.00 | 0.04 | 0.00 | 56 | 1017.0 |
| 20260503201605 | 80 | 330 | 2.0 | 5.0 | 0.00 | 0.04 | 0.00 | 56 | 1017.1 |
| 20260503201105 | 80 | 50 | 3.0 | 10.0 | 0.00 | 0.04 | 0.00 | 56 | 1017.3 |
| 20260503195605 | 79 | 78 | 2.0 | 8.0 | 0.00 | 0.04 | 0.00 | 57 | 1017.4 |
| 20260503195105 | 79 | 127 | 2.0 | 5.0 | 0.00 | 0.05 | 0.00 | 58 | 1017.4 |
| 20260503194605 | 79 | 64 | 1.0 | 3.0 | 0.00 | 0.05 | 0.00 | 60 | 1017.5 |
| 20260503194105 | 79 | 50 | 1.0 | 5.0 | 0.00 | 0.08 | 0.00 | 58 | 1017.5 |
| 20260503193605 | 79 | 134 | 2.0 | 7.0 | 0.00 | 0.09 | 0.00 | 58 | 1017.5 |
| 20260503193104 | 79 | 94 | 1.0 | 5.0 | 0.00 | 0.10 | 0.00 | 57 | 1017.7 |
| 20260503192605 | 78 | 104 | 2.0 | 7.0 | 0.00 | 0.15 | 0.00 | 59 | 1017.9 |
| 20260503191605 | 78 | 65 | 1.0 | 3.0 | 0.00 | 0.21 | 0.00 | 60 | 1018.2 |
| 20260503191104 | 78 | 308 | 2.0 | 3.0 | 0.00 | 0.23 | 0.00 | 59 | 1018.2 |
| 20260503190605 | 78 | 112 | 2.0 | 7.0 | 0.00 | 0.24 | 0.00 | 58 | 1018.3 |
| 20260503190112 | 79 | 100 | 2.0 | 5.0 | 0.00 | 0.24 | 0.00 | 59 | 1018.4 |
| 20260503185106 | 79 | 31 | 3.0 | 7.0 | 0.00 | 0.24 | 0.00 | 58 | 1018.5 |
| 20260503184104 | 78 | 31 | 2.0 | 6.0 | 0.00 | 0.24 | 0.00 | 59 | 1018.6 |
| 20260503183605 | 79 | 319 | 3.0 | 5.0 | 0.00 | 0.24 | 0.00 | 59 | 1018.6 |
| 20260503183105 | 80 | 97 | 1.0 | 5.0 | 0.00 | 0.24 | 0.00 | 58 | 1018.7 |
| 20260503182605 | 79 | 288 | 2.0 | 3.0 | 0.00 | 0.24 | 0.00 | 61 | 1018.8 |
| 20260503182105 | 79 | 117 | 3.0 | 7.0 | 0.00 | 0.24 | 0.00 | 61 | 1018.9 |
| 20260503181105 | 78 | 310 | 2.0 | 7.0 | 0.00 | 0.24 | 0.00 | 61 | 1018.9 |
| 20260503180604 | 78 | 76 | 2.0 | 6.0 | 0.00 | 0.24 | 0.00 | 63 | 1018.9 |
| 20260503175605 | 77 | 54 | 3.0 | 8.0 | 0.00 | 0.24 | 0.00 | 65 | 1019.1 |
| 20260503175104 | 77 | 107 | 3.0 | 8.0 | 0.00 | 0.24 | 0.00 | 62 | 1019.2 |
| 20260503174605 | 78 | 321 | 3.0 | 8.0 | 0.00 | 0.24 | 0.00 | 63 | 1019.2 |
| 20260503174105 | 77 | 36 | 2.0 | 7.0 | 0.00 | 0.24 | 0.00 | 64 | 1019.2 |
| 20260503173604 | 76 | 310 | 2.0 | 6.0 | 0.00 | 0.24 | 0.00 | 64 | 1019.2 |
| 20260503172605 | 75 | 21 | 2.0 | 7.0 | 0.00 | 0.24 | 0.00 | 68 | 1019.3 |
| 20260503172105 | 75 | 319 | 5.0 | 10.0 | 0.00 | 0.24 | 0.00 | 65 | 1019.4 |
| 20260503171605 | 76 | 321 | 3.0 | 6.0 | 0.00 | 0.24 | 0.00 | 64 | 1019.5 |
| 20260503171105 | 76 | 320 | 3.0 | 8.0 | 0.00 | 0.24 | 0.00 | 65 | 1019.5 |
| 20260503170605 | 76 | 49 | 3.0 | 7.0 | 0.00 | 0.24 | 0.00 | 66 | 1019.5 |
| 20260503170111 | 76 | 350 | 2.0 | 7.0 | 0.00 | 0.24 | 0.00 | 67 | 1019.5 |
| 20260503160111 | 73 | 34 | 2.0 | 6.0 | 0.00 | 0.24 | 0.00 | 71 | 1019.8 |
| 20260503150604 | 70 | 329 | 2.0 | 6.0 | 0.00 | 0.24 | 0.00 | 75 | 1020.1 |
| 20260503140111 | 67 | 314 | 3.0 | 15.0 | 0.00 | 0.24 | 0.00 | 82 | 1019.3 |
| 20260503131104 | 64 | 309 | 3.0 | 5.0 | 0.00 | 0.24 | 0.00 | 90 | 1019.0 |
| 20260503130605 | 63 | 334 | 2.0 | 9.0 | 0.00 | 0.24 | 0.00 | 91 | 1018.9 |
| 20260503130110 | 63 | 312 | 3.0 | 7.0 | 0.00 | 0.24 | 0.00 | 91 | 1019.0 |
| 20260503120111 | 62 | 37 | 3.0 | 7.0 | 0.00 | 0.24 | 0.00 | 92 | 1018.3 |
| 20260503110604 | 62 | 318 | 2.0 | 5.0 | 0.00 | 0.24 | 0.00 | 92 | 1017.9 |
| 20260503110110 | 62 | 325 | 2.0 | 3.0 | 0.00 | 0.24 | 0.00 | 92 | 1017.9 |
| 20260503100110 | 62 | 334 | 1.0 | 3.0 | 0.00 | 0.24 | 0.00 | 92 | 1017.3 |
| 20260503090111 | 63 | 315 | 2.0 | 7.0 | 0.00 | 0.24 | 0.00 | 91 | 1016.9 |
| 20260503081605 | 63 | 308 | 3.0 | 6.0 | 0.00 | 0.24 | 0.00 | 92 | 1016.6 |
| 20260503081104 | 63 | 320 | 3.0 | 9.0 | 0.00 | 0.24 | 0.00 | 92 | 1016.7 |
| 20260503080604 | 63 | 326 | 3.0 | 7.0 | 0.00 | 0.24 | 0.00 | 92 | 1016.5 |
| 20260503080111 | 63 | 325 | 3.0 | 8.0 | 0.00 | 0.24 | 0.00 | 91 | 1016.2 |
| 20260503072604 | 64 | 323 | 3.0 | 5.0 | 0.00 | 0.24 | 0.00 | 91 | 1016.4 |
| 20260503072103 | 64 | 334 | 4.0 | 7.0 | 0.00 | 0.24 | 0.00 | 91 | 1016.4 |
| 20260503071604 | 64 | 332 | 1.0 | 6.0 | 0.00 | 0.24 | 0.00 | 91 | 1016.3 |
| 20260503071104 | 64 | 327 | 2.0 | 6.0 | 0.00 | 0.24 | 0.00 | 92 | 1016.5 |
| 20260503070109 | 64 | 326 | 3.0 | 8.0 | 0.00 | 0.24 | 0.00 | 91 | 1016.5 |
| 20260503060110 | 65 | 317 | 3.0 | 8.0 | 0.00 | 0.24 | 0.00 | 91 | 1016.3 |
| 20260503055104 | 66 | 319 | 2.0 | 6.0 | 0.00 | 0.24 | 0.00 | 92 | 1016.5 |
| 20260503054604 | 66 | 314 | 2.0 | 5.0 | 0.00 | 0.24 | 0.00 | 92 | 1016.6 |
| 20260503054104 | 66 | 312 | 3.0 | 5.0 | 0.00 | 0.24 | 0.00 | 92 | 1016.6 |
| 20260503053604 | 66 | 16 | 2.0 | 3.0 | 0.00 | 0.24 | 0.00 | 92 | 1016.6 |
| 20260503053104 | 66 | 58 | 1.0 | 2.0 | 0.00 | 0.24 | 0.00 | 92 | 1016.6 |
| 20260503052604 | 66 | 62 | 1.0 | 3.0 | 0.00 | 0.24 | 0.00 | 92 | 1016.6 |
| 20260503052103 | 66 | 310 | 2.0 | 3.0 | 0.00 | 0.24 | 0.00 | 91 | 1016.5 |
| 20260503051604 | 66 | 339 | 3.0 | 8.0 | 0.00 | 0.24 | 0.00 | 91 | 1016.4 |
| 20260503051104 | 66 | 312 | 3.0 | 7.0 | 0.00 | 0.24 | 0.00 | 91 | 1016.5 |
| 20260503050603 | 66 | 324 | 3.0 | 21.0 | 0.00 | 0.24 | 0.00 | 91 | 1016.4 |
| 20260503050109 | 66 | 327 | 1.0 | 6.0 | 0.00 | 0.24 | 0.00 | 91 | 1016.5 |
| 20260503045604 | 66 | 321 | 2.0 | 7.0 | 0.00 | 0.24 | 0.00 | 91 | 1016.5 |
| 20260503045104 | 66 | 325 | 4.0 | 9.0 | 0.00 | 0.24 | 0.00 | 91 | 1016.5 |
| 20260503044604 | 67 | 322 | 3.0 | 8.0 | 0.00 | 0.24 | 0.00 | 91 | 1016.5 |
| 20260503044106 | 67 | 328 | 3.0 | 7.0 | 0.00 | 0.24 | 0.00 | 91 | 1016.6 |